COSMOS 2251 DEB, 34128

Orbit data source: Space-Track

COSMOS 2251 DEB, 34128 is space debris in LEO originally from a launch on Wed, 16 Jun 1993 UTC launched from the Plesetsk Missile And Space Complex (PKMTR). The debris from Iridium 33, an American commercial communications satellite, has been tracked extensively since its accidental collision with the defunct Russian satellite Cosmos 2251 in 2009. This event, occurring at high speed in low Earth orbit (LEO), generated thousands of pieces of space debris, significantly increasing the risk of further collisions. The Iridium 33 debris cloud has impacted space traffic management and orbital debris mitigation strategies, making it a subject of ongoing study in space situational awareness.

Loading next visibility...
Identifier
34128, 1993-036KZ
Orbit
LEO
Country
Flag of CISCIS
Related business
Manufacturer
Unknown
Mission
Spacecraft
Bus & Motor
Unknown
Mass
Unknown
Launch date (UTC)
1993-06-16 (32 years ago)
Launch vehicle
Unknown
Launch site
Plesetsk Missile And Space Complex (PKMTR)
Object type
Payload
Rocket body
Debris
Shape & HBR
Unknown shape, 0.1 m
Radar Cross Section
Small (<0.1 m²)

Expand to show TLE details & history
Last TLE update: 14 hours ago

TLE from 14 hours ago
0 COSMOS 2251 DEB
1 34128U 93036KZ  25312.61202604  .00056420  00000-0  46635-2 0  9996
2 34128  74.0026   6.2267 0026742 129.5025  22.5555 14.98364988886553
Epoch: 2025-11-08T14:41Z
TLE epoch observation values (Epoch: 2025-11-08T14:41:19.049Z)
Latitude
26.70437°
Longitude
-90.38823°
Altitude
557.786 km
Speed
7.595 km/s
True Right ascension
11h 51m 55s
True Declination
26° 33' 45"
Sunlit
Object was in daylight at epoch
Visualization orbit readout
Latitude
Unknown
Longitude
Unknown
Altitude
Unknown
Speed
Unknown
Apparent Right ascension
Unknown
Apparent Declination
Unknown
Sunlit
N/A
Visualization observer readout
Local Sidereal Time
01:17:57
Azimuth
Unknown
Elevation
Unknown
Doppler factor
Unknown
Orbital elements
Apogee altitude
588.085 km
Perigee altitude
550.927 km
Semi-major axis
6,947.643 km
Eccentricity
0.00267
Inclination
74.0026°
RAAN
6.2267°
Arg. of periapsis
129.5025°
True anomaly
22.67341°
Mean anomaly
22.5555°
Eccentric anomaly
22.61442°
Mean motion
3.74789 °/min
Orbital period
96.05 mins
BSTAR
0.0046635

Documentation

Showing up to 5 results
|